星链-31501 (STARLINK-31501 )

导读 | 豆包AI

STARLINK-31501是美国太空探索技术公司(SpaceX)于2024年3月31日发射的星链卫星,属于星链(Starlink)低轨宽带互联网巨型星座的组成部分。 星链项目旨在为全球偏远、基础设施不足地区提供高速低延迟互联网服务,STARLINK-31501运行于近地轨道,和数千颗已在轨星链卫星协同,共同实现全球网络覆盖,推动天地一体化通信网络建设。

基本信息
目录编号:
59359
目录名称:
STARLINK-31501
国际标识:
2024-060M
轨道中心:
EARTH
卫星名称:
星链-31501
卫星全名:
星链-31501 (STARLINK-31501 )
卫星状态:
在轨 (已飞行760 天)
发射日期:
2024-03-31 UTC
国别 :
美国 (US)
星等 :
--
轨道信息
数据来源 国际轨道数据
星历时间: 2026-04-30T15:16:23+0800
16小时前
查看轨道信息
半长轴: 6861.111km
偏心率: 0.0002408
轨道倾角: 43.007°
近地点辐角 260.050°
升交点赤经 328.615°
平近点角 100.008°
近地点: 481.321km
远地点: 484.627km
周期: 94.265分钟
每日圈数: 15.276051
详细信息
固有亮度:
5
最大亮度:
0.3
卫星平台:
Starlink v2.0 mini
覆盖范围:
全球
运营商:
太空探索技术公司
运营商所在国:
美国
制造商(研发单位):
太空探索技术公司
制造商所在国:
美国
使用方式:
暂无
卫星简介
星链(Starlink)计划是由太空探索技术公司(SpaceX)提出的一个巨型低轨卫星互联网星座项目,计划在2019年至2024年间在太空搭建由约1.2万颗卫星组成的“星链”网络,其中1584颗将部署在地球上空550千米处的近地轨道,并从2020年开始工作。该卫星仍在工作。
2D轨道图
3D轨道图
轨道高度分析图
轨道倾角分析图
轨道综合分析图
查看轨道综合分析图